EW4055 Weather Reports


Display with metric or nautical units.
time (UTC)temp
F
wind
direction
speed
MPH
gust
MPH
rain 1hr
in
rain 24hr
in
rain mn
in
humidity
%
barometer
mb
20260510095139 71 56 2.0 7.0 0.00 0.07 0.07 66 1013.0
20260510094140 70 76 4.0 9.0 0.00 0.07 0.07 68 1013.1
20260510093139 69 72 2.0 5.0 0.00 0.07 0.07 68 1013.1
20260510092829 68 75 1.0 2.0 0.00 0.07 0.07 74 1013.1
20260510091140 67 125 2.0 3.0 0.00 0.07 0.07 80 1013.3
20260510090156 65 113 2.0 4.0 0.00 0.07 0.07 80 1013.4
20260510085138 64 151 0.0 1.0 0.00 0.07 0.07 78 1013.4
20260510084140 64 80 1.0 3.0 0.00 0.07 0.07 80 1013.4
20260510083139 63 213 1.0 4.0 0.00 0.07 0.07 85 1013.6
20260510082143 62 147 1.0 7.0 0.00 0.07 0.07 85 1013.6
20260510081139 62 86 6.0 9.0 0.00 0.07 0.07 86 1013.4
20260510080139 62 80 4.0 6.0 0.00 0.07 0.07 90 1013.6
20260510075138 61 104 3.0 7.0 0.00 0.07 0.07 91 1013.8
20260510074842 60 116 4.0 7.0 0.00 0.07 0.07 92 1014.1
20260510073138 60 158 1.0 5.0 0.00 0.07 0.07 92 1014.2
20260510072138 59 125 4.0 7.0 0.00 0.07 0.07 92 1014.0
20260510071826 59 79 2.0 4.0 0.00 0.07 0.07 93 1014.2
20260510070151 59 111 0.0 3.0 0.00 0.07 0.07 93 1014.2
20260510065831 58 175 1.0 2.0 0.00 0.07 0.07 93 1014.4
20260510064134 58 238 1.0 3.0 0.00 0.07 0.07 93 1014.3
20260510063140 58 28 0.0 4.0 0.00 0.07 0.07 93 1014.3
20260510062136 57 206 1.0 3.0 0.00 0.07 0.07 93 1014.4
20260510061136 57 233 2.0 5.0 0.00 0.07 0.07 93 1014.2
20260510060652 57 175 2.0 5.0 0.00 0.07 0.07 92 1014.1
20260510060303 57 130 3.0 5.0 0.00 0.07 0.07 92 1014.0
20260510054133 57 226 0.0 2.0 0.00 0.07 0.07 92 1014.3
20260510053136 57 240 0.0 3.0 0.00 0.07 0.07 92 1014.4
20260510052133 57 224 2.0 4.0 0.00 0.07 0.07 92 1014.5
20260510051139 57 233 1.0 4.0 0.00 0.07 0.07 91 1014.8
20260510050155 57 85 1.0 9.0 0.00 0.07 0.07 91 1014.8
20260510045140 57 83 9.0 11.0 0.00 0.07 0.07 91 1014.6
20260510044137 57 169 2.0 9.0 0.00 0.07 0.07 91 1014.7
20260510043135 57 224 1.0 7.0 0.00 0.07 0.07 92 1014.7
20260510042134 57 71 8.0 10.0 0.02 0.07 0.07 92 1014.6
20260510041134 57 71 3.0 4.0 0.05 0.07 0.07 91 1014.7
20260510040138 58 69 2.0 6.0 0.07 0.07 0.07 91 1014.7
20260510035131 57 148 1.0 3.0 0.07 0.00 0.07 90 1014.8
20260510034130 58 148 2.0 2.0 0.07 0.00 0.07 90 1014.7
20260510033626 58 283 1.0 4.0 0.07 0.00 0.07 90 1014.7
20260510032131 58 138 1.0 3.0 0.05 0.00 0.05 89 1014.5
20260510031158 58 138 2.0 5.0 0.02 0.00 0.02 89 1014.6
20260510030204 58 158 0.0 1.0 0.00 0.00 0.00 88 1014.6
20260510025144 58 158 0.0 2.0 0.00 0.00 0.00 88 1014.7
20260510024137 58 158 0.0 1.0 0.00 0.00 0.00 88 1014.6
20260510023135 57 158 0.0 2.0 0.00 0.00 0.00 88 1014.6
20260510022141 57 140 0.0 4.0 0.00 0.00 0.00 88 1014.5
20260510021134 57 100 1.0 2.0 0.00 0.00 0.00 88 1014.4
20260510020211 57 155 1.0 2.0 0.00 0.00 0.00 87 1014.4
20260510015143 58 266 2.0 3.0 0.00 0.00 0.00 87 1014.5
20260510014855 58 228 2.0 2.0 0.00 0.00 0.00 87 1014.6
20260510013904 58 134 1.0 4.0 0.00 0.00 0.00 87 1014.5
20260510012130 58 103 1.0 3.0 0.00 0.00 0.00 87 1014.5
20260510011907 58 130 1.0 3.0 0.00 0.00 0.00 87 1014.6
20260510010209 58 141 1.0 3.0 0.00 0.00 0.00 87 1014.6
20260510005842 58 228 1.0 3.0 0.00 0.00 0.00 87 1014.7
20260510004138 58 159 1.0 2.0 0.00 0.00 0.00 87 1015.0
20260510003132 58 159 0.0 1.0 0.00 0.00 0.00 87 1015.1
20260510002131 58 159 1.0 2.0 0.00 0.00 0.00 86 1015.2
20260510001138 58 159 0.0 1.0 0.00 0.00 0.00 86 1015.2
20260510000155 58 159 0.0 1.0 0.00 0.00 0.00 85 1015.4
20260509235126 58 159 0.0 2.0 0.00 0.00 0.00 85 1015.5
20260509234125 59 159 0.0 2.0 0.00 0.00 0.00 84 1015.6
20260509233129 59 159 1.0 3.0 0.00 0.00 0.00 84 1015.7
20260509232849 59 159 1.0 3.0 0.00 0.00 0.00 84 1015.4
20260509231913 59 93 1.0 3.0 0.00 0.00 0.00 84 1015.2
20260509230211 59 178 1.0 4.0 0.00 0.00 0.00 83 1015.3
20260509225130 60 148 1.0 3.0 0.00 0.00 0.00 83 1015.3
20260509224126 60 149 0.0 2.0 0.00 0.00 0.00 83 1015.4
20260509223128 60 149 2.0 3.0 0.00 0.00 0.00 83 1015.4
20260509222125 60 87 2.0 4.0 0.00 0.00 0.00 83 1015.4
20260509221823 60 180 0.0 0.0 0.00 0.00 0.00 83 1015.5
20260509220146 60 180 0.0 0.0 0.00 0.00 0.00 83 1015.6
20260509215749 60 180 0.0 0.0 0.00 0.00 0.00 83 1015.5
20260509214124 60 180 0.0 0.0 0.00 0.00 0.00 82 1015.7
20260509213124 60 180 0.0 0.0 0.00 0.00 0.00 82 1015.7
20260509212122 60 180 0.0 2.0 0.00 0.00 0.00 82 1015.7
20260509211123 60 180 0.0 2.0 0.00 0.00 0.00 82 1015.8
20260509210154 60 180 2.0 3.0 0.00 0.00 0.00 81 1015.9
20260509205128 60 180 1.0 2.0 0.00 0.00 0.00 81 1016.1
20260509204121 60 180 0.0 2.0 0.00 0.00 0.00 80 1016.3
20260509203119 61 180 0.0 2.0 0.00 0.00 0.00 79 1016.3
20260509202121 61 180 0.0 2.0 0.00 0.00 0.00 79 1016.3
20260509201124 61 180 0.0 2.0 0.00 0.00 0.00 78 1016.3
20260509200144 62 180 0.0 1.0 0.00 0.00 0.00 77 1016.1
20260509195122 62 180 0.0 2.0 0.00 0.00 0.00 76 1016.1
20260509194122 62 180 0.0 3.0 0.00 0.00 0.00 76 1016.0
20260509193126 63 134 1.0 2.0 0.00 0.00 0.00 75 1015.9
20260509192121 63 104 1.0 2.0 0.00 0.00 0.00 74 1015.8
20260509191121 63 104 1.0 4.0 0.00 0.00 0.00 73 1015.7
20260509190152 64 89 3.0 4.0 0.00 0.00 0.00 73 1015.5
20260509185122 64 111 2.0 4.0 0.00 0.00 0.00 73 1015.6
20260509184119 64 97 3.0 5.0 0.00 0.00 0.00 72 1015.6
20260509183116 64 99 4.0 6.0 0.00 0.00 0.00 72 1015.5
20260509182121 65 86 5.0 6.0 0.00 0.00 0.00 71 1015.5
20260509181132 65 96 5.0 6.0 0.00 0.00 0.00 71 1015.5
20260509180140 65 80 4.0 6.0 0.00 0.00 0.00 71 1015.4
20260509175121 65 86 3.0 4.0 0.00 0.00 0.00 70 1015.5
20260509174119 65 55 3.0 4.0 0.00 0.00 0.00 70 1015.4
20260509173115 66 73 3.0 5.0 0.00 0.00 0.00 69 1015.6
20260509172126 66 90 2.0 7.0 0.00 0.00 0.00 68 1015.5
20260509171119 67 87 4.0 6.0 0.00 0.00 0.00 67 1015.5
20260509170139 67 75 4.0 7.0 0.00 0.00 0.00 66 1015.4
20260509165113 67 78 4.0 7.0 0.00 0.00 0.00 65 1015.5
20260509164119 68 65 4.0 9.0 0.00 0.00 0.00 64 1015.5
20260509163210 68 73 3.0 7.0 0.00 0.00 0.00 63 1015.6
20260509163124 68 66 4.0 7.0 0.00 0.00 0.00 63 1015.5
20260509161112 69 79 6.0 10.0 0.00 0.00 0.00 63 1015.6
20260509160156 69 59 4.0 9.0 0.00 0.00 0.00 64 1015.6
20260509155113 69 45 5.0 11.0 0.00 0.00 0.00 64 1015.6
20260509154110 69 80 6.0 10.0 0.00 0.00 0.00 64 1015.8
20260509153109 70 11 3.0 6.0 0.00 0.00 0.00 63 1016.0
20260509152109 69 25 3.0 9.0 0.00 0.00 0.00 64 1016.1
20260509151108 70 59 5.0 9.0 0.00 0.00 0.00 63 1016.1
20260509150137 70 23 6.0 11.0 0.00 0.00 0.00 62 1016.1
20260509145204 70 58 4.0 10.0 0.00 0.00 0.00 60 1016.1
20260509145121 70 52 5.0 11.0 0.00 0.00 0.00 62 1016.0
20260509143133 70 72 5.0 10.0 0.00 0.00 0.00 61 1016.2
20260509142346 71 82 8.0 13.0 0.00 0.00 0.00 58 1016.2
20260509141658 71 24 4.0 11.0 0.00 0.00 0.00 61 1016.3
20260509141246 71 52 6.0 11.0 0.00 0.00 0.00 59 1016.3
20260509135106 71 83 8.0 11.0 0.00 0.00 0.00 57 1016.3
20260509134738 72 90 6.0 11.0 0.00 0.00 0.00 56 1016.4
20260509133102 73 0 4.0 10.0 0.00 0.00 0.00 56 1016.5
20260509132103 73 56 5.0 9.0 0.00 0.00 0.00 54 1016.7
20260509131103 73 66 5.0 10.0 0.00 0.00 0.00 54 1016.7
20260509130111 72 27 5.0 11.0 0.00 0.00 0.00 54 1016.8
20260509125103 72 80 6.0 12.0 0.00 0.00 0.00 56 1016.9
20260509124059 73 76 6.0 10.0 0.00 0.00 0.00 53 1017.1
20260509123102 72 55 4.0 7.0 0.00 0.00 0.00 56 1016.9
20260509122739 72 0 6.0 9.0 0.00 0.00 0.00 56 1017.1
20260509121103 72 55 6.0 10.0 0.00 0.00 0.00 56 1017.2
20260509120114 72 63 5.0 10.0 0.00 0.00 0.00 58 1017.2
20260509115601 71 34 9.0 12.0 0.00 0.00 0.00 56 1017.2
20260509115223 71 61 7.0 11.0 0.00 0.00 0.00 57 1017.2
20260509113101 71 86 6.0 10.0 0.00 0.00 0.00 59 1017.1
20260509112903 71 27 7.0 13.0 0.00 0.00 0.00 57 1017.2
20260509111059 71 44 7.0 13.0 0.00 0.00 0.00 57 1017.3
20260509110107 72 110 6.0 11.0 0.00 0.00 0.00 57 1017.2
20260509105051 71 8 8.0 14.0 0.00 0.00 0.00 57 1017.3
20260509104746 72 20 6.0 12.0 0.00 0.00 0.00 59 1017.4
20260509103044 72 20 5.0 11.0 0.00 0.00 0.00 56 1017.4
20260509102051 72 66 3.0 7.0 0.00 0.00 0.00 50 1017.5
20260509101048 73 92 4.0 9.0 0.00 0.00 0.00 49 1017.6
20260509100127 73 49 2.0 6.0 0.00 0.00 0.00 49 1017.4